Time,TemperatureF,DewpointF,PressureIn,WindDirection,WindDirectionDegrees,WindSpeedMPH,WindSpeedGustMPH,Humidity,HourlyPrecipIn,Conditions,Clouds,dailyrainin,SolarRadiationWatts/m^2,SoftwareType,DateUTC
2013-04-10 00:09:00,49.9,47.0,29.75,NW,313,6.0,16.0,88,0.07,,,0.07,0,weatherlink.com 1.10,2013-04-10 05:09:00,
2013-04-10 00:24:00,48.5,46.0,29.82,West,269,5.0,15.0,90,0.10,,,0.10,0,weatherlink.com 1.10,2013-04-10 05:24:00,
2013-04-10 00:39:00,47.1,44.0,29.83,WNW,300,10.0,19.0,90,0.18,,,0.18,0,weatherlink.com 1.10,2013-04-10 05:39:00,
2013-04-10 00:54:00,45.8,43.0,29.82,East,92,6.0,19.0,90,0.18,,,0.18,0,weatherlink.com 1.10,2013-04-10 05:54:00,
2013-04-10 01:09:00,43.1,40.0,29.84,NW,326,2.0,18.0,87,0.12,,,0.19,0,weatherlink.com 1.10,2013-04-10 06:09:00,
2013-04-10 01:24:00,42.8,40.0,29.81,SE,135,3.0,8.0,88,0.09,,,0.19,0,weatherlink.com 1.10,2013-04-10 06:24:00,
2013-04-10 01:39:00,43.1,40.0,29.82,NNE,24,1.0,3.0,89,0.02,,,0.20,0,weatherlink.com 1.10,2013-04-10 06:39:00,
2013-04-10 01:54:00,43.5,41.0,29.80,ESE,111,3.0,4.0,90,0.03,,,0.21,0,weatherlink.com 1.10,2013-04-10 06:54:00,
2013-04-10 02:09:00,43.8,41.0,29.78,NE,55,3.0,4.0,91,0.04,,,0.23,0,weatherlink.com 1.10,2013-04-10 07:09:00,
2013-04-10 02:24:00,44.0,42.0,29.72,ENE,65,3.0,8.0,91,0.07,,,0.26,0,weatherlink.com 1.10,2013-04-10 07:24:00,
2013-04-10 02:39:00,44.3,42.0,29.71,NE,48,5.0,9.0,92,0.06,,,0.26,0,weatherlink.com 1.10,2013-04-10 07:39:00,
2013-04-10 02:54:00,45.1,43.0,29.73,North,9,4.0,8.0,93,0.05,,,0.26,0,weatherlink.com 1.10,2013-04-10 07:54:00,
2013-04-10 03:09:00,45.5,44.0,29.73,NE,46,0.0,5.0,93,0.03,,,0.27,0,weatherlink.com 1.10,2013-04-10 08:09:00,
2013-04-10 03:24:00,45.9,44.0,29.74,NE,46,2.0,3.0,93,0.03,,,0.29,0,weatherlink.com 1.10,2013-04-10 08:24:00,
2013-04-10 03:39:00,45.9,44.0,29.76,West,274,3.0,10.0,93,0.06,,,0.32,0,weatherlink.com 1.10,2013-04-10 08:39:00,
2013-04-10 03:54:00,45.6,44.0,29.77,WNW,283,4.0,12.0,93,0.15,,,0.41,0,weatherlink.com 1.10,2013-04-10 08:54:00,
2013-04-10 04:09:00,45.0,43.0,29.82,SW,223,10.0,11.0,93,0.15,,,0.42,0,weatherlink.com 1.10,2013-04-10 09:09:00,
2013-04-10 04:24:00,43.9,42.0,29.79,NNW,336,3.0,12.0,93,0.26,,,0.55,0,weatherlink.com 1.10,2013-04-10 09:24:00,
2013-04-10 04:39:00,43.8,42.0,29.82,WNW,302,1.0,13.0,93,0.27,,,0.59,0,weatherlink.com 1.10,2013-04-10 09:39:00,
2013-04-10 04:54:00,43.6,42.0,29.83,WNW,302,2.0,7.0,93,0.19,,,0.60,0,weatherlink.com 1.10,2013-04-10 09:54:00,
2013-04-10 05:09:00,43.3,42.0,29.81,WNW,289,4.0,7.0,93,0.23,,,0.66,0,weatherlink.com 1.10,2013-04-10 10:09:00,
2013-04-10 05:24:00,43.1,41.0,29.82,NNW,328,0.0,5.0,93,0.12,,,0.67,0,weatherlink.com 1.10,2013-04-10 10:24:00,
2013-04-10 05:39:00,43.2,41.0,29.82,WNW,302,2.0,6.0,93,0.08,,,0.67,0,weatherlink.com 1.10,2013-04-10 10:39:00,
2013-04-10 05:54:00,43.1,41.0,29.81,West,273,2.0,7.0,93,0.07,,,0.67,0,weatherlink.com 1.10,2013-04-10 10:54:00,
2013-04-10 06:10:00,42.8,41.0,29.86,WNW,283,2.0,9.0,93,0.01,,,0.67,0,weatherlink.com 1.10,2013-04-10 11:10:00,
2013-04-10 06:25:00,42.4,41.0,29.87,WNW,296,5.0,10.0,93,0.00,,,0.67,0,weatherlink.com 1.10,2013-04-10 11:25:00,
2013-04-10 06:40:00,42.1,40.0,29.85,WNW,296,5.0,10.0,92,0.00,,,0.67,0,weatherlink.com 1.10,2013-04-10 11:40:00,
2013-04-10 06:55:00,41.8,40.0,29.86,NW,314,3.0,9.0,92,0.00,,,0.67,0,weatherlink.com 1.10,2013-04-10 11:55:00,
2013-04-10 07:10:00,41.5,39.0,29.83,NNW,346,1.0,8.0,92,0.00,,,0.67,7,weatherlink.com 1.10,2013-04-10 12:10:00,
2013-04-10 07:25:00,41.5,39.0,29.83,WNW,300,3.0,7.0,92,0.00,,,0.67,14,weatherlink.com 1.10,2013-04-10 12:25:00,
2013-04-10 07:40:00,41.3,39.0,29.85,NNW,330,2.0,9.0,92,0.00,,,0.67,14,weatherlink.com 1.10,2013-04-10 12:40:00,
2013-04-10 07:55:00,40.9,39.0,29.85,NNE,17,0.0,6.0,92,0.00,,,0.67,35,weatherlink.com 1.10,2013-04-10 12:55:00,
2013-04-10 08:10:00,40.8,39.0,29.87,West,276,3.0,9.0,92,0.00,,,0.67,26,weatherlink.com 1.10,2013-04-10 13:10:00,
2013-04-10 08:25:00,40.6,39.0,29.87,WNW,294,3.0,13.0,92,0.00,,,0.67,40,weatherlink.com 1.10,2013-04-10 13:25:00,
2013-04-10 08:40:00,40.6,39.0,29.88,WSW,241,1.0,8.0,92,0.00,,,0.67,33,weatherlink.com 1.10,2013-04-10 13:40:00,
2013-04-10 08:55:00,40.5,38.0,29.90,NW,313,3.0,7.0,91,0.00,,,0.67,23,weatherlink.com 1.10,2013-04-10 13:55:00,
2013-04-10 09:10:00,40.4,38.0,29.91,WNW,289,2.0,9.0,91,0.00,,,0.67,11,weatherlink.com 1.10,2013-04-10 14:10:00,
2013-04-10 09:25:00,40.4,38.0,29.86,North,355,3.0,7.0,91,0.00,,,0.67,33,weatherlink.com 1.10,2013-04-10 14:25:00,
2013-04-10 09:40:00,40.3,38.0,29.86,NNW,336,0.0,7.0,91,0.00,,,0.67,25,weatherlink.com 1.10,2013-04-10 14:40:00,
2013-04-10 09:55:00,40.2,38.0,29.88,NW,304,4.0,7.0,92,0.01,,,0.68,16,weatherlink.com 1.10,2013-04-10 14:55:00,
2013-04-10 10:10:00,40.2,38.0,29.91,West,265,2.0,5.0,92,0.04,,,0.71,25,weatherlink.com 1.10,2013-04-10 15:10:00,
2013-04-10 10:25:00,40.2,38.0,29.91,NW,312,1.0,8.0,92,0.10,,,0.04,79,weatherlink.com 1.10,2013-04-10 15:25:00,
2013-04-10 10:40:00,40.2,38.0,29.91,North,355,3.0,8.0,92,0.13,,,0.07,65,weatherlink.com 1.10,2013-04-10 15:40:00,
2013-04-10 10:55:00,40.3,39.0,29.90,NW,308,0.0,4.0,93,0.13,,,0.08,88,weatherlink.com 1.10,2013-04-10 15:55:00,
2013-04-10 11:10:00,40.2,38.0,29.85,WNW,290,0.0,7.0,92,0.11,,,0.09,72,weatherlink.com 1.10,2013-04-10 16:10:00,
2013-04-10 11:25:00,40.5,39.0,29.88,NW,308,4.0,7.0,93,0.06,,,0.10,118,weatherlink.com 1.10,2013-04-10 16:25:00,
2013-04-10 11:40:00,40.5,39.0,29.90,NNW,347,4.0,9.0,93,0.04,,,0.11,69,weatherlink.com 1.10,2013-04-10 16:40:00,
2013-04-10 11:55:00,40.8,39.0,29.88,WNW,288,1.0,7.0,93,0.04,,,0.12,65,weatherlink.com 1.10,2013-04-10 16:55:00,
2013-04-10 12:10:00,40.7,39.0,29.88,NW,313,2.0,11.0,92,0.04,,,0.13,100,weatherlink.com 1.10,2013-04-10 17:10:00,
2013-04-10 12:25:00,40.8,39.0,29.85,WNW,299,4.0,8.0,92,0.04,,,0.14,88,weatherlink.com 1.10,2013-04-10 17:25:00,
2013-04-10 12:40:00,41.1,39.0,29.86,West,277,5.0,11.0,93,0.03,,,0.14,211,weatherlink.com 1.10,2013-04-10 17:40:00,
2013-04-10 12:55:00,41.5,40.0,29.85,NNW,338,3.0,8.0,93,0.02,,,0.14,172,weatherlink.com 1.10,2013-04-10 17:55:00,
2013-04-10 13:10:00,42.1,40.0,29.83,NE,40,7.0,8.0,93,0.01,,,0.14,227,weatherlink.com 1.10,2013-04-10 18:10:00,
2013-04-10 13:26:00,42.1,40.0,29.83,WNW,286,3.0,8.0,92,0.00,,,0.14,121,weatherlink.com 1.10,2013-04-10 18:26:00,
2013-04-10 13:41:00,41.8,39.0,29.83,WNW,291,2.0,10.0,91,0.00,,,0.14,63,weatherlink.com 1.10,2013-04-10 18:41:00,
2013-04-10 13:56:00,41.8,39.0,29.86,NW,306,1.0,12.0,91,0.00,,,0.14,33,weatherlink.com 1.10,2013-04-10 18:56:00,
2013-04-10 14:11:00,41.4,39.0,29.86,SSW,206,12.0,16.0,91,0.05,,,0.19,62,weatherlink.com 1.10,2013-04-10 19:11:00,
2013-04-10 14:26:00,41.0,39.0,29.87,WSW,238,5.0,15.0,91,0.09,,,0.23,76,weatherlink.com 1.10,2013-04-10 19:26:00,
2013-04-10 14:41:00,40.6,39.0,29.86,SW,228,7.0,13.0,92,0.12,,,0.26,81,weatherlink.com 1.10,2013-04-10 19:41:00,
2013-04-10 14:56:00,40.2,38.0,29.86,SSW,213,6.0,10.0,92,0.14,,,0.28,83,weatherlink.com 1.10,2013-04-10 19:56:00,
2013-04-10 15:11:00,39.9,38.0,29.86,NW,325,4.0,11.0,92,0.12,,,0.31,58,weatherlink.com 1.10,2013-04-10 20:11:00,
2013-04-10 15:26:00,39.9,38.0,29.83,West,273,1.0,10.0,92,0.11,,,0.34,63,weatherlink.com 1.10,2013-04-10 20:26:00,
2013-04-10 15:41:00,39.9,38.0,29.81,NW,317,2.0,10.0,92,0.10,,,0.36,98,weatherlink.com 1.10,2013-04-10 20:41:00,
2013-04-10 15:56:00,40.2,38.0,29.81,WSW,257,3.0,10.0,93,0.10,,,0.38,118,weatherlink.com 1.10,2013-04-10 20:56:00,
2013-04-10 16:41:00,41.0,39.0,29.78,WNW,302,3.0,9.0,93,0.06,,,0.42,60,weatherlink.com 1.10,2013-04-10 21:41:00,
2013-04-10 16:56:00,41.1,39.0,29.80,WNW,284,2.0,7.0,92,0.04,,,0.42,44,weatherlink.com 1.10,2013-04-10 21:56:00,
2013-04-10 17:26:00,41.3,39.0,29.78,NNW,328,7.0,9.0,92,0.02,,,0.43,51,weatherlink.com 1.10,2013-04-10 22:26:00,
2013-04-10 17:56:00,41.4,39.0,29.79,WSW,250,3.0,14.0,92,0.01,,,0.43,63,weatherlink.com 1.10,2013-04-10 22:56:00,
2013-04-10 18:11:00,41.5,39.0,29.78,WSW,248,3.0,11.0,92,0.01,,,0.43,98,weatherlink.com 1.10,2013-04-10 23:11:00,
2013-04-10 18:26:00,41.6,40.0,29.78,NNW,340,3.0,8.0,92,0.00,,,0.43,77,weatherlink.com 1.10,2013-04-10 23:26:00,
2013-04-10 18:41:00,41.6,40.0,29.79,NW,321,1.0,9.0,93,0.00,,,0.43,39,weatherlink.com 1.10,2013-04-10 23:41:00,
2013-04-10 18:56:00,41.6,40.0,29.79,NW,317,3.0,8.0,93,0.00,,,0.43,39,weatherlink.com 1.10,2013-04-10 23:56:00,
2013-04-10 19:11:00,41.5,40.0,29.79,WSW,255,0.0,8.0,93,0.00,,,0.43,25,weatherlink.com 1.10,2013-04-11 00:11:00,
2013-04-10 19:41:00,41.0,39.0,29.80,WNW,298,4.0,8.0,93,0.00,,,0.43,0,weatherlink.com 1.10,2013-04-11 00:41:00,
2013-04-10 19:56:00,40.7,39.0,29.80,WSW,247,2.0,11.0,93,0.00,,,0.43,0,weatherlink.com 1.10,2013-04-11 00:56:00,
2013-04-10 20:11:00,40.5,39.0,29.80,West,278,3.0,7.0,93,0.01,,,0.44,0,weatherlink.com 1.10,2013-04-11 01:11:00,
2013-04-10 20:26:00,40.5,39.0,29.81,NW,309,4.0,10.0,93,0.01,,,0.44,0,weatherlink.com 1.10,2013-04-11 01:26:00,
2013-04-10 20:41:00,40.3,39.0,29.80,West,271,0.0,7.0,93,0.01,,,0.44,0,weatherlink.com 1.10,2013-04-11 01:41:00,
2013-04-10 20:56:00,40.3,39.0,29.80,WNW,287,1.0,5.0,93,0.01,,,0.44,0,weatherlink.com 1.10,2013-04-11 01:56:00,
2013-04-10 21:11:00,40.3,39.0,29.80,WNW,288,4.0,6.0,93,0.00,,,0.44,0,weatherlink.com 1.10,2013-04-11 02:11:00,
2013-04-10 21:26:00,40.3,39.0,29.81,West,281,1.0,7.0,93,0.00,,,0.44,0,weatherlink.com 1.10,2013-04-11 02:26:00,
2013-04-10 21:41:00,40.2,38.0,29.81,NW,304,1.0,9.0,93,0.01,,,0.45,0,weatherlink.com 1.10,2013-04-11 02:41:00,
2013-04-10 21:56:00,40.2,38.0,29.82,WSW,241,2.0,7.0,93,0.01,,,0.45,0,weatherlink.com 1.10,2013-04-11 02:56:00,
2013-04-10 22:11:00,40.0,38.0,29.82,West,267,3.0,8.0,93,0.01,,,0.45,0,weatherlink.com 1.10,2013-04-11 03:11:00,
2013-04-10 22:42:00,39.5,38.0,29.84,WNW,286,4.0,6.0,93,0.00,,,0.45,0,weatherlink.com 1.10,2013-04-11 03:42:00,
2013-04-10 22:57:00,39.0,37.0,29.84,WSW,258,3.0,10.0,93,0.00,,,0.45,0,weatherlink.com 1.10,2013-04-11 03:57:00,
2013-04-10 23:12:00,38.5,37.0,29.84,SW,225,7.0,12.0,93,0.00,,,0.45,0,weatherlink.com 1.10,2013-04-11 04:12:00,
2013-04-10 23:27:00,37.6,36.0,29.83,WNW,298,5.0,10.0,93,0.01,,,0.46,0,weatherlink.com 1.10,2013-04-11 04:27:00,
2013-04-10 23:42:00,36.9,35.0,29.83,NW,312,6.0,13.0,93,0.01,,,0.46,0,weatherlink.com 1.10,2013-04-11 04:42:00,
2013-04-10 23:57:00,36.4,35.0,29.83,WSW,240,5.0,10.0,93,0.01,,,0.46,0,weatherlink.com 1.10,2013-04-11 04:57:00,